81P/Wild 2 (2010)

Japanese version
Home page
Total 6,336 html files since Dec. 4, 1995
Updated on October 26, 2008

---------------------------------------------------------------------

* Profile

* Orbital Elements

The following orbital elements are taken from MPC 59598:

Epoch 2010 Feb. 13.0 TT = JDT 2455240.5
T 2010 Feb. 22.7209 TT                                  MPC
q   1.598059             (2000.0)            P               Q
n   0.1535098      Peri.   41.7939      -0.9985850      -0.0359776
a   3.454448       Node   136.0970      +0.0194975      -0.9328222
e   0.537391       Incl.    3.2375      +0.0494762      -0.3585363
P   6.42
From 1990 observations 1985-2005, mean residual 0".7.  Nongravitational
     parameters A1 = +0.10, A2 = +0.0092.

* Finding Charts

* Magnitudes Graph

        m1 = 5.3 + 5 log d + 21.6 log r(t + 20)  [  ,95]  (            - 2010 May 28)
        m1 = 8.2 + 5 log d + 12.5 log r          [95,  ]  (2010 May 28 -            )

---------------------------------------------------------------------

The orbital elements are published at the MPC Ephemerides and Orbital Elements.
The charts are made with StellaNavigator Ver.2.0 for Windows (AstroArts / ASCII).
The magnitudes graphs are made with Comet for Windows.

---------------------------------------------------------------------

Copyright(C) 1995-2008 Seiichi Yoshida (comet@aerith.net). All rights reserved.